Location: Cary
(35.7910°N, 78.7810°W)
Time: 05:47:20
(UTC-04:00)

OTV 5 (USA 277) - Visible Passes

Search period start: 18 June 2018 00:00
Search period end: 28 June 2018 00:00
Orbit: 313 x 320 km, 54.5° (Epoch: 16 June)

Date Brightness Start Highest point End Pass type
(mag) Time Alt. Az. Time Alt. Az. Time Alt. Az.
18 Jun ? 05:05:13 10° NW 05:07:54 61° SW 05:10:34 10° SSE visible
18 Jun ? 21:23:18 10° W 21:25:38 26° NW 21:27:58 10° NNE visible
19 Jun ? 03:45:50 10° NNW 03:48:01 21° NE 03:50:11 10° E visible
19 Jun ? 05:20:17 10° W 05:22:12 17° SW 05:24:08 10° S visible
19 Jun ? 21:39:21 10° NW 21:40:18 11° NNW 21:41:15 10° NNW visible
20 Jun ? 03:59:51 10° NW 04:01:41 37° NNW 04:01:41 37° NNW visible
